Wind_Speed
46 47 48 49 50 51 52 53 54 54 55 55 55 55 55 55 55 54 54 53 53 53 53 53 53 53 53 53 53 53 53 54 54 54 54 54 55 55 55 55 55 55 56 56 56 56 56 56 57 57 57 57
48 49 50 51 53 54 55 55 56 56 57 57 57 57 57 57 56 56 55 55 54 54 54 54 54 54 54 55 55 55 55 55 56 56 56 56 56 57 57 57 57 57 57 57 57 57 57 57 57 58 58 58
50 51 52 53 54 55 56 57 57 57 58 58 58 58 58 57 57 56 56 55 55 55 55 56 56 56 56 56 56 56 57 57 57 58 58 58 58 58 58 58 58 58 58 58 58 58 58 58 58 58 59 59
51 52 53 54 55 56 57 57 57 58 58 58 58 58 58 58 57 57 57 57 57 57 58 58 58 58 58 58 58 58 58 58 59 59 59 59 60 59 59 59 59 59 59 59 59 59 59 59 59 60 60 60
52 53 54 54 55 56 57 57 58 58 59 59 59 59 59 59 59 59 59 59 59 59 60 60 60 60 59 59 59 60 60 60 60 60 60 60 60 60 60 60 60 60 60 60 60 60 61 61 61 61 62 62
53 54 54 55 56 57 58 59 59 60 60 60 60 60 60 60 60 60 60 60 61 61 61 61 61 61 61 61 60 61 61 61 61 61 61 61 61 61 61 61 61 61 61 61 61 62 62 62 62 62 63 63
54 55 56 57 58 59 60 60 60 60 61 61 61 61 61 61 61 61 61 61 61 61 61 62 62 62 62 62 62 62 62 62 62 62 62 62 62 62 62 62 62 62 62 62 63 63 63 63 63 63 63 64
56 57 58 59 60 60 61 61 61 61 62 62 62 62 62 62 62 62 62 62 62 62 62 63 63 63 63 63 63 63 63 63 63 63 63 63 63 63 63 63 63 63 63 63 63 63 64 64 64 64 64 64
58 59 60 60 61 61 61 62 62 62 62 62 63 63 63 63 63 63 63 63 63 63 64 64 64 64 64 64 64 65 65 65 65 64 64 64 64 64 64 64 64 64 64 64 64 64 64 64 65 65 65 65
60 60 60 61 62 62 62 63 63 63 63 63 63 64 64 64 64 65 65 65 65 65 65 65 65 66 66 66 66 66 66 66 66 65 65 65 65 64 64 64 64 64 64 64 65 65 65 65 65 65 66 66
61 61 61 62 63 63 63 64 64 64 64 64 64 65 65 65 66 66 66 66 66 66 67 67 67 67 67 67 67 67 67 67 66 66 66 65 65 65 64 64 65 65 65 65 66 66 66 66 66 66 66 67
62 62 63 63 64 64 65 65 65 65 65 65 65 66 66 67 67 67 67 67 67 67 67 67 67 67 67 67 67 67 67 67 67 66 66 65 65 65 65 65 65 66 66 67 67 66 66 66 66 67 67 67
63 64 64 65 65 66 66 66 66 66 66 66 66 67 67 68 68 68 68 68 68 68 68 68 68 68 68 68 67 67 67 67 66 66 66 66 65 65 66 66 67 67 67 67 67 67 67 67 67 67 68 68
65 65 66 66 66 67 67 67 67 67 67 67 67 67 68 68 68 68 68 68 68 68 68 68 68 68 68 68 67 67 67 67 67 67 67 66 66 67 67 68 68 68 68 68 67 67 67 67 67 68 68 69
66 67 67 67 67 67 67 67 68 68 68 68 68 68 68 68 68 68 68 68 68 68 69 69 68 68 68 67 67 67 67 67 68 67 67 67 67 67 68 68 68 68 68 68 68 68 68 68 68 68 67 67
67 67 67 67 67 68 68 68 68 68 69 68 68 68 68 68 68 68 68 68 68 68 68 68 68 68 67 67 67 67 67 67 68 67 67 67 67 68 68 68 68 68 68 68 68 68 68 68 67 66 65 65
67 68 68 68 68 68 69 69 69 69 69 69 69 69 68 68 68 68 68 68 68 68 68 68 67 67 67 67 66 66 67 67 67 67 67 67 68 68 68 68 68 68 68 68 68 68 67 67 65 64 63 62
68 68 69 69 69 69 69 69 69 69 69 69 69 69 69 69 69 69 69 69 69 68 68 67 67 67 66 66 66 66 67 67 67 67 67 67 68 68 68 68 68 68 68 68 67 67 66 65 64 62 61 60
68 69 69 69 69 69 69 69 69 70 70 70 70 70 69 70 69 69 69 69 69 68 68 67 67 66 66 66 66 66 66 67 67 67 67 67 68 68 68 68 68 68 67 67 66 65 64 63 62 61 60 59
68 69 69 69 69 69 69 69 69 70 70 70 70 70 70 70 70 69 69 69 68 68 67 67 66 66 66 65 66 66 66 67 67 67 67 68 68 68 68 68 68 68 67 66 65 64 63 62 62 61 60 59
68 68 68 68 69 69 69 69 69 70 70 70 70 71 70 70 70 69 69 68 68 68 67 66 66 66 66 66 66 66 66 66 67 68 68 68 69 69 69 68 68 67 67 66 64 63 62 61 62 61 61 60
67 67 67 68 68 68 69 69 69 70 70 70 70 70 70 70 70 69 68 68 67 67 66 66 66 66 66 66 66 66 66 67 67 68 69 69 69 69 69 69 68 67 67 66 64 63 63 63 63 63 63 62
66 66 66 67 67 68 68 68 69 69 69 69 69 69 69 69 68 68 68 67 67 67 66 67 67 67 67 66 66 66 67 67 68 69 69 69 70 70 70 69 69 68 67 66 65 65 64 64 65 65 65 65
65 65 65 65 66 66 67 67 68 68 68 68 69 68 68 68 67 67 67 67 67 67 67 67 68 68 67 67 67 67 67 68 69 69 70 70 71 71 71 71 71 70 69 68 68 67 67 67 67 67 67 67
64 64 64 65 66 66 67 67 68 68 68 68 68 68 67 67 67 67 67 67 67 68 68 69 69 69 68 68 68 68 68 69 70 70 71 71 72 72 72 72 72 72 72 71 71 70 70 70 69 69 69 68
64 64 65 66 66 67 68 68 68 68 68 68 68 68 68 67 68 68 68 68 69 69 70 70 70 70 70 70 70 69 70 70 71 72 72 72 73 73 74 75 75 75 75 75 74 74 73 72 72 71 70 69
65 65 66 67 67 67 68 68 69 68 69 69 68 69 69 68 69 69 70 70 71 71 72 72 72 72 72 72 71 71 71 72 73 73 74 74 74 75 76 77 77 78 78 77 77 77 76 75 74 73 72 72
66 67 67 67 67 67 68 69 69 69 69 69 69 69 69 69 70 70 71 72 73 73 73 73 73 73 73 72 72 72 72 73 74 75 75 76 76 77 78 79 79 79 80 80 79 79 78 77 76 75 74 74
67 68 68 67 68 68 69 70 71 71 71 71 70 70 70 70 71 72 73 73 73 74 74 73 73 73 73 73 73 73 74 74 75 76 76 77 78 79 80 81 81 81 81 81 81 80 79 78 78 77 77 75
67 68 68 68 69 69 70 71 71 72 72 72 72 72 72 72 72 73 74 74 75 74 74 74 74 73 73 74 74 75 75 76 76 77 78 78 80 81 82 82 82 82 82 81 81 80 79 79 79 78 78 77
67 67 68 68 69 70 70 71 71 72 72 72 72 72 73 73 74 75 75 76 76 76 75 75 75 74 74 74 75 75 76 77 77 78 79 79 80 81 82 82 82 82 82 81 81 81 80 79 79 79 78 78
Wind_Direction
270 270 271 271 272 272 272 272 272 273 274 274 274 274 274 273 273 272 272 272 272 271 271 271 270 270 270 269 269 269 268 268 268 268 267 267 267 267 267 267 267 267 267 268 268 268 268 268 269 268 268 268
271 271 271 271 271 271 272 272 272 273 273 273 273 273 272 272 272 272 272 272 272 272 271 271 270 270 269 269 268 268 267 267 267 267 266 266 266 265 265 265 265 265 266 266 267 267 267 268 268 268 268 268
271 271 271 271 271 271 272 272 272 272 272 272 272 272 272 272 272 272 272 272 272 272 271 271 270 269 269 268 268 267 267 266 266 266 265 265 265 264 264 264 264 264 264 265 265 266 266 266 267 267 267 268
270 270 271 271 271 271 271 271 271 271 271 271 271 271 272 272 272 272 272 272 272 271 271 270 269 269 268 268 268 267 266 266 265 265 265 264 264 264 264 264 264 263 263 264 264 264 265 265 266 266 267 267
271 271 271 271 271 271 271 270 270 270 270 271 271 271 271 272 272 272 272 272 271 270 270 269 269 269 268 268 267 267 266 266 265 265 264 264 264 264 263 263 263 263 263 263 263 264 264 265 265 266 267 267
271 271 271 271 271 270 270 270 270 270 270 271 271 271 271 272 272 272 272 271 271 270 270 269 269 268 268 267 267 267 267 266 266 265 265 265 265 264 264 263 263 263 263 263 263 264 264 265 266 266 267 267
272 272 271 271 270 270 270 270 271 271 271 271 271 271 272 272 272 272 271 271 270 270 269 269 268 268 268 268 268 267 267 267 267 266 266 265 265 265 264 264 264 263 263 264 264 264 264 265 266 266 267 268
272 272 271 271 271 271 271 271 271 271 271 271 272 272 272 272 271 271 271 270 270 269 269 269 269 269 269 269 268 268 268 268 267 267 266 266 265 265 265 265 265 265 265 265 265 266 266 266 266 267 267 268
272 271 271 271 271 271 271 271 271 271 272 272 272 272 271 271 271 271 270 270 269 269 269 269 269 269 269 269 269 269 268 268 268 268 267 267 266 266 266 266 266 266 266 266 267 267 267 267 267 268 268 268
272 272 272 271 271 271 271 271 271 271 271 271 271 271 271 271 270 270 270 270 270 269 269 269 269 269 269 269 269 269 269 269 269 268 268 268 268 267 267 267 267 267 267 267 267 268 268 268 268 269 269 269
272 272 272 271 271 272 272 272 271 271 271 271 271 271 271 270 270 270 270 270 270 270 270 270 270 270 270 270 270 270 270 270 269 269 269 268 268 268 268 268 268 268 268 268 268 268 269 269 269 270 270 270
272 272 272 272 272 272 272 271 271 271 271 271 271 271 271 271 270 270 270 271 271 271 271 271 271 271 271 271 271 271 270 270 270 269 269 269 269 269 269 268 268 268 268 269 269 269 269 270 270 270 270 271
273 272 272 272 271 271 271 271 271 271 271 271 271 271 271 271 271 271 271 271 271 272 272 272 272 272 271 271 271 271 270 270 270 269 269 269 269 269 269 269 269 269 269 270 270 270 270 270 270 271 271 271
273 272 272 272 272 272 272 272 272 272 272 271 271 271 271 271 271 271 271 272 272 272 272 272 272 271 271 271 270 270 270 270 269 269 269 269 269 269 269 269 269 270 270 270 270 270 271 271 271 271 271 271
272 272 272 272 272 272 272 272 272 272 271 271 271 271 271 271 272 272 272 272 272 272 272 271 271 271 271 270 270 270 270 270 270 270 270 270 270 270 270 270 270 270 271 271 271 271 271 271 272 272 271 271
272 272 272 272 272 272 272 271 271 271 271 271 271 271 271 271 271 271 271 271 271 271 271 271 270 270 270 270 270 269 269 269 270 270 270 270 270 270 271 271 271 271 271 271 272 272 272 272 272 271 271 270
272 272 272 272 272 271 271 271 271 271 271 271 271 271 271 271 271 271 271 271 271 270 270 270 270 269 269 269 269 269 269 269 270 270 270 271 271 271 271 271 271 272 272 272 272 272 272 272 272 271 270 269
272 272 272 272 271 271 271 271 271 271 271 271 270 270 270 270 270 270 270 270 270 270 269 269 269 269 268 268 268 268 269 269 270 270 271 271 271 271 271 271 272 272 272 272 272 272 272 271 271 270 268 267
272 272 271 271 271 271 271 271 271 270 270 270 270 270 270 269 269 269 269 269 269 269 268 268 268 268 268 268 268 268 269 269 270 270 271 271 271 271 271 271 271 271 272 272 272 271 271 270 270 269 268 267
272 271 271 271 271 271 271 271 270 270 270 270 269 269 269 269 269 268 268 268 268 268 268 267 267 267 267 268 268 268 269 269 270 270 270 270 270 270 270 271 271 271 271 271 270 270 270 270 270 269 268 267
271 271 271 271 271 271 271 271 270 270 269 269 269 269 268 268 268 268 268 267 267 267 267 267 267 267 267 267 268 268 269 269 269 270 270 270 270 270 270 270 270 270 270 270 270 270 269 269 270 270 269 269
271 271 271 271 271 271 270 270 270 269 269 269 268 268 268 268 268 267 267 267 266 266 266 266 267 267 267 267 268 268 269 269 269 269 269 269 269 269 269 269 269 269 269 270 269 270 270 270 270 270 270 270
271 271 271 270 270 270 269 269 269 269 268 268 268 268 268 268 267 267 267 266 266 266 266 266 267 267 267 267 268 269 269 269 269 269 269 269 269 269 269 269 270 269 269 269 270 270 270 270 271 271 271 271
271 270 270 270 269 269 269 268 268 268 268 268 268 268 268 268 267 267 267 266 266 266 266 266 267 267 267 267 268 269 269 269 269 269 269 269 269 269 269 270 270 270 270 270 270 271 271 270 270 270 270 270
270 270 270 269 269 269 269 268 268 268 268 268 268 268 268 268 267 267 267 266 266 266 266 266 267 267 267 267 268 268 269 269 268 268 268 268 269 269 269 270 270 271 271 271 271 271 271 270 270 269 269 269
270 269 269 269 269 269 269 268 268 268 268 268 268 268 268 267 267 267 267 266 266 266 266 267 267 267 267 267 268 268 269 268 268 267 267 267 268 268 269 269 270 271 271 272 272 271 271 270 270 269 269 268
269 269 269 269 269 269 268 268 268 267 268 268 268 268 268 267 267 267 267 267 267 266 267 267 267 267 267 267 267 267 267 267 266 266 265 265 265 266 267 268 270 270 271 272 272 272 272 271 270 270 270 269
269 269 269 269 269 268 268 268 268 267 267 267 267 268 268 267 267 267 266 266 265 265 265 265 265 265 265 265 264 264 264 264 264 263 263 264 264 265 266 267 268 270 271 271 272 272 272 272 271 271 271 270
268 268 268 268 268 268 268 268 268 268 268 268 268 267 267 266 266 265 264 264 263 263 262 262 262 262 262 262 263 263 263 263 263 263 263 264 264 265 266 267 268 269 270 271 271 271 271 271 271 271 271 270
268 268 268 268 268 268 269 269 269 269 268 268 267 266 266 265 264 264 263 262 262 261 261 261 261 261 261 262 262 262 262 262 263 263 264 265 265 266 267 267 268 268 269 270 270 270 271 271 271 270 270 269
269 268 268 268 268 269 269 269 269 269 269 268 267 266 265 265 264 264 263 263 262 262 262 262 262 262 262 263 263 263 263 263 264 264 265 265 266 266 267 267 268 268 269 269 270 270 270 270 270 270 269 269
Height
5774 5774 5773 5773 5772 5771 5770 5770 5770 5769 5769 5769 5768 5768 5767 5767 5767 5767 5767 5767 5767 5767 5767 5767 5766 5766 5766 5766 5766 5766 5766 5766 5767 5767 5767 5768 5768 5769 5769 5770 5770 5770 5770 5770 5770 5770 5771 5771 5772 5773 5773 5774
5769 5769 5768 5767 5767 5766 5765 5765 5765 5764 5764 5764 5763 5762 5762 5762 5762 5762 5762 5762 5762 5762 5762 5762 5762 5762 5761 5761 5761 5761 5761 5762 5762 5762 5762 5762 5763 5763 5764 5765 5765 5765 5765 5765 5765 5765 5765 5766 5766 5767 5767 5768
5764 5764 5763 5762 5762 5761 5760 5760 5760 5759 5759 5758 5758 5757 5757 5757 5757 5757 5757 5757 5757 5757 5757 5757 5756 5756 5756 5756 5756 5756 5756 5756 5756 5756 5757 5757 5757 5758 5759 5759 5760 5760 5760 5760 5760 5760 5760 5760 5761 5761 5762 5762
5759 5758 5758 5757 5756 5755 5755 5754 5754 5753 5753 5753 5752 5752 5752 5752 5752 5752 5752 5752 5752 5751 5751 5750 5750 5750 5750 5750 5750 5750 5750 5750 5750 5750 5751 5751 5751 5752 5753 5753 5754 5754 5754 5754 5754 5754 5754 5755 5755 5755 5756 5756
5753 5753 5752 5751 5750 5750 5749 5748 5748 5748 5748 5747 5747 5747 5747 5747 5747 5747 5746 5746 5745 5744 5744 5744 5743 5744 5744 5744 5744 5743 5744 5744 5744 5744 5744 5745 5745 5746 5746 5747 5747 5747 5748 5748 5748 5748 5748 5748 5749 5749 5749 5750
5748 5747 5746 5745 5744 5743 5743 5742 5742 5742 5742 5742 5741 5741 5741 5740 5740 5739 5739 5738 5738 5738 5737 5737 5737 5737 5737 5737 5737 5737 5737 5737 5737 5738 5738 5738 5738 5738 5739 5740 5740 5740 5741 5741 5741 5741 5741 5742 5742 5742 5742 5743
5742 5741 5740 5739 5738 5737 5737 5737 5736 5736 5736 5735 5734 5734 5734 5733 5733 5732 5732 5731 5731 5731 5731 5731 5730 5730 5731 5731 5731 5730 5730 5730 5730 5731 5731 5731 5731 5731 5731 5732 5732 5733 5733 5733 5733 5734 5734 5734 5735 5735 5735 5735
5735 5734 5733 5732 5732 5731 5731 5730 5730 5729 5729 5728 5727 5727 5726 5726 5725 5725 5725 5725 5724 5724 5724 5724 5724 5724 5724 5724 5723 5723 5723 5723 5723 5723 5723 5723 5723 5723 5723 5724 5724 5724 5725 5725 5725 5726 5726 5727 5727 5727 5728 5728
5729 5727 5727 5726 5725 5724 5723 5723 5722 5722 5722 5721 5720 5720 5719 5719 5718 5718 5718 5718 5717 5717 5717 5717 5717 5717 5717 5717 5716 5715 5715 5715 5715 5715 5715 5715 5715 5715 5715 5715 5716 5716 5717 5717 5717 5718 5718 5719 5719 5719 5720 5720
5722 5721 5720 5719 5717 5717 5716 5715 5715 5715 5715 5714 5713 5712 5712 5711 5711 5710 5710 5710 5710 5710 5710 5710 5710 5709 5709 5709 5708 5708 5707 5707 5707 5707 5707 5707 5707 5707 5707 5707 5707 5708 5708 5708 5709 5709 5710 5710 5710 5711 5711 5712
5714 5713 5712 5711 5710 5710 5709 5708 5708 5707 5707 5707 5706 5705 5705 5704 5704 5703 5703 5703 5703 5703 5703 5702 5702 5701 5701 5701 5700 5700 5700 5699 5699 5699 5699 5698 5698 5698 5699 5699 5699 5699 5699 5700 5700 5701 5701 5701 5701 5702 5703 5703
5707 5706 5705 5704 5703 5702 5701 5701 5700 5700 5700 5699 5699 5698 5697 5696 5696 5696 5696 5696 5695 5695 5694 5694 5693 5693 5693 5692 5692 5692 5692 5691 5690 5690 5690 5690 5690 5690 5690 5690 5690 5691 5691 5691 5692 5692 5692 5693 5693 5693 5694 5695
5699 5698 5697 5696 5695 5694 5694 5693 5693 5692 5692 5692 5692 5691 5689 5688 5688 5688 5688 5688 5687 5686 5686 5685 5685 5684 5684 5684 5683 5683 5683 5682 5682 5681 5682 5682 5682 5682 5682 5682 5682 5682 5682 5682 5683 5683 5684 5684 5684 5685 5685 5686
5691 5690 5689 5688 5688 5687 5686 5685 5685 5684 5684 5683 5683 5682 5681 5680 5680 5679 5679 5679 5678 5678 5677 5676 5676 5675 5675 5675 5675 5675 5674 5673 5673 5673 5673 5673 5673 5673 5673 5673 5673 5673 5673 5674 5674 5675 5675 5675 5676 5676 5677 5677
5683 5682 5681 5680 5680 5679 5678 5677 5676 5675 5675 5675 5674 5674 5673 5672 5671 5671 5671 5670 5669 5669 5668 5668 5667 5667 5667 5666 5666 5666 5665 5665 5664 5664 5664 5664 5664 5664 5664 5664 5664 5664 5664 5665 5665 5666 5667 5667 5667 5667 5668 5668
5674 5674 5673 5672 5671 5670 5669 5668 5667 5666 5666 5666 5665 5665 5664 5664 5663 5662 5662 5661 5661 5660 5660 5659 5659 5658 5658 5658 5658 5657 5657 5656 5655 5655 5655 5655 5655 5655 5655 5655 5655 5655 5655 5656 5656 5657 5658 5658 5658 5659 5659 5660
5666 5665 5664 5663 5662 5661 5660 5659 5658 5657 5657 5657 5656 5656 5656 5655 5654 5653 5653 5652 5652 5651 5651 5650 5650 5649 5649 5649 5649 5648 5648 5648 5647 5646 5647 5646 5646 5646 5646 5646 5646 5646 5646 5647 5647 5648 5649 5649 5649 5650 5651 5651
5657 5656 5655 5654 5653 5652 5651 5650 5649 5648 5648 5647 5647 5647 5646 5646 5645 5645 5644 5643 5642 5642 5641 5641 5641 5640 5640 5640 5640 5639 5639 5639 5638 5638 5638 5637 5637 5637 5637 5637 5637 5637 5638 5638 5639 5640 5640 5641 5641 5641 5642 5643
5648 5647 5645 5644 5644 5643 5642 5641 5640 5639 5639 5638 5638 5637 5637 5636 5636 5636 5635 5634 5633 5632 5632 5632 5631 5631 5631 5632 5631 5630 5630 5630 5629 5629 5629 5629 5628 5628 5629 5629 5629 5629 5630 5630 5630 5631 5632 5632 5632 5633 5634 5635
5639 5638 5637 5635 5634 5634 5633 5632 5631 5630 5629 5629 5628 5628 5627 5627 5626 5627 5626 5625 5624 5623 5623 5623 5622 5623 5623 5623 5622 5621 5621 5621 5620 5620 5620 5620 5620 5620 5620 5620 5621 5621 5621 5622 5622 5623 5624 5624 5624 5624 5626 5626
5630 5629 5628 5627 5626 5624 5623 5622 5621 5620 5620 5619 5619 5618 5618 5617 5617 5617 5616 5616 5615 5614 5614 5614 5614 5614 5614 5614 5613 5613 5613 5612 5612 5611 5612 5612 5611 5611 5612 5612 5613 5612 5613 5613 5614 5615 5616 5616 5616 5616 5617 5618
5621 5620 5619 5618 5617 5615 5614 5613 5612 5611 5610 5609 5609 5609 5608 5608 5607 5608 5607 5607 5606 5605 5605 5605 5605 5606 5606 5605 5605 5604 5604 5604 5603 5603 5603 5603 5603 5603 5603 5603 5604 5604 5604 5605 5606 5607 5607 5607 5607 5608 5609 5610
5613 5612 5610 5609 5608 5606 5604 5604 5603 5602 5601 5600 5600 5600 5599 5598 5598 5598 5598 5598 5597 5597 5597 5596 5596 5597 5597 5597 5596 5596 5596 5595 5594 5594 5594 5594 5594 5594 5594 5594 5595 5595 5596 5596 5597 5598 5598 5599 5599 5600 5600 5601
5604 5603 5602 5600 5598 5597 5595 5595 5594 5593 5592 5591 5590 5590 5590 5589 5589 5589 5589 5589 5589 5588 5588 5588 5588 5588 5588 5588 5588 5587 5587 5586 5586 5585 5585 5585 5585 5585 5585 5586 5586 5586 5586 5588 5589 5589 5590 5590 5591 5592 5592 5592
5595 5594 5593 5591 5589 5588 5586 5586 5585 5584 5583 5583 5581 5581 5581 5580 5580 5580 5579 5580 5580 5579 5579 5579 5579 5579 5579 5579 5578 5578 5578 5577 5577 5576 5576 5576 5576 5576 5576 5577 5577 5576 5577 5578 5580 5580 5581 5581 5582 5583 5583 5584
5586 5585 5584 5582 5580 5579 5578 5576 5576 5575 5574 5574 5573 5571 5572 5572 5571 5571 5570 5570 5570 5570 5570 5570 5570 5570 5570 5569 5569 5569 5568 5568 5568 5567 5567 5567 5567 5567 5567 5568 5568 5567 5568 5569 5570 5570 5571 5572 5573 5573 5574 5575
5577 5576 5574 5573 5571 5570 5569 5567 5567 5567 5565 5565 5564 5563 5563 5563 5562 5562 5561 5561 5561 5561 5560 5560 5560 5560 5560 5559 5559 5559 5559 5558 5558 5558 5558 5558 5558 5558 5558 5558 5558 5558 5558 5559 5560 5560 5561 5562 5563 5564 5564 5564
5568 5567 5565 5564 5563 5561 5560 5559 5558 5557 5556 5556 5555 5554 5553 5553 5553 5553 5552 5552 5551 5551 5551 5550 5550 5550 5549 5549 5549 5549 5549 5549 5549 5548 5548 5549 5549 5549 5549 5549 5549 5549 5549 5549 5550 5550 5551 5551 5552 5554 5554 5554
5559 5558 5557 5555 5554 5552 5551 5550 5549 5548 5547 5546 5546 5545 5544 5543 5543 5543 5542 5541 5541 5540 5540 5540 5539 5539 5539 5539 5538 5539 5539 5539 5538 5538 5538 5539 5538 5538 5538 5539 5540 5540 5539 5539 5539 5540 5541 5541 5541 5543 5543 5544
5550 5549 5548 5546 5545 5543 5542 5540 5539 5538 5538 5537 5536 5535 5534 5533 5532 5532 5531 5531 5530 5530 5530 5529 5529 5529 5529 5528 5528 5528 5528 5528 5528 5528 5528 5528 5528 5527 5527 5528 5529 5530 5529 5529 5529 5529 5530 5531 5531 5532 5533 5534
5541 5539 5538 5537 5535 5534 5532 5531 5530 5528 5528 5526 5526 5525 5524 5523 5522 5521 5521 5520 5519 5519 5519 5519 5518 5518 5518 5518 5517 5517 5517 5517 5517 5517 5517 5517 5517 5517 5517 5517 5517 5519 5519 5518 5519 5519 5519 5520 5521 5521 5522 5523